Las Cruces, NM

6:24 AM MST on November 22, 2017 (GMT -0700)
Las Cruces International

Weather History for KLRU - January, 2014

Change the Weather History Date:

Thursday, January 23, 2014

  Actual Average Record
Temperature  
Mean Temperature 38 °F -  
Max Temperature 48 °F 55 °F 68 °F (2009)
Min Temperature 26 °F 31 °F 12 °F (2015)
Degree Days  
Heating Degree Days 27    
Moisture  
Dew Point 14 °F    
Average Humidity 37    
Maximum Humidity 59    
Minimum Humidity 24    
Precipitation  
Precipitation 0.00 in - - ()
Sea Level Pressure  
Sea Level Pressure 30.21 in    
Wind  
Wind Speed 8 mph (SSE)    
Max Wind Speed 22 mph    
Max Gust Speed 29 mph    
Visibility 10 miles    
Events      
Averages and records for this station are not official NWS values.
T = Trace of Precipitation, MM = Missing Value Source: NWS Daily Summary

Daily Weather History Graph

Daily Weather History Graph

Search for Another Location

Airport or City:

Trip Planner

Search our weather history database for the weather conditions in past years. The results will help you decide how hot, cold, wet, or windy it might be!

Date:

Astronomy

Jan. 23, 2014 Rise Set
Actual Time 7:06 AM MST 5:32 PM MST
Civil Twilight 6:40 AM MST 5:59 PM MST
Nautical Twilight 6:10 AM MST 6:28 PM MST
Astronomical Twilight 5:41 AM MST 6:57 PM MST
Moon No Moon Rise 11:10 AM MST (1/23)
Length of Visible Light 11h 18m
Length of Day
10h 26m
Waning Gibbous, 54% of the Moon is Illuminated
Jan 23
Waning Gibbous
Jan 23
Last Quarter
Jan 30
New
Feb 6
First Quarter
Feb 14
Full

Hourly Weather History & Observations

Time (MST) Temp. Windchill Dew Point Humidity Pressure Visibility Wind Dir Wind Speed Gust Speed Precip Events Conditions
12:15 AM 46.2 °F 42.7 °F 11.1 °F 24% 29.98 in 10.0 mi South 6.9 mph - N/A   Clear
12:35 AM 45.1 °F - 10.8 °F 25% 29.98 in 10.0 mi Calm Calm - N/A   Clear
12:55 AM 41.2 °F 39.2 °F 10.2 °F 28% 29.98 in 10.0 mi SSW 3.5 mph - N/A   Clear
1:15 AM 39.7 °F - 9.9 °F 29% 29.98 in 10.0 mi Calm Calm - N/A   Clear
1:35 AM 43.5 °F - 11.1 °F 27% 29.98 in 10.0 mi Calm Calm - N/A   Clear
1:55 AM 41.4 °F - 10.4 °F 28% 29.98 in 10.0 mi Calm Calm - N/A   Clear
2:15 AM 39.6 °F 37.4 °F 9.1 °F 29% 29.98 in 10.0 mi SSE 3.5 mph - N/A   Clear
2:35 AM 44.2 °F 41.0 °F 11.3 °F 26% 29.97 in 10.0 mi South 5.8 mph - N/A   Clear
2:55 AM 44.4 °F 42.0 °F 10.9 °F 26% 29.98 in 10.0 mi South 4.6 mph - N/A   Clear
3:15 AM 39.6 °F 37.4 °F 9.9 °F 30% 29.98 in 10.0 mi SSW 3.5 mph - N/A   Clear
3:35 AM 37.8 °F 35.3 °F 9.1 °F 31% 29.98 in 10.0 mi SSW 3.5 mph - N/A   Clear
3:55 AM 39.0 °F 36.8 °F 9.9 °F 30% 29.99 in 10.0 mi SW 3.5 mph - N/A   Clear
4:15 AM 39.6 °F 36.3 °F 10.2 °F 30% 29.99 in 10.0 mi SSW 4.6 mph - N/A   Clear
4:35 AM 41.9 °F 38.2 °F 11.3 °F 29% 30.00 in 10.0 mi South 5.8 mph - N/A   Clear
4:55 AM 43.0 °F 38.2 °F 13.1 °F 30% 30.00 in 10.0 mi South 8.1 mph - N/A   Clear
5:15 AM 42.8 °F 37.5 °F 13.1 °F 30% 30.01 in 10.0 mi South 9.2 mph - N/A   Clear
5:35 AM 42.6 °F 36.8 °F 13.1 °F 30% 30.02 in 10.0 mi South 10.4 mph - N/A   Clear
5:55 AM 41.9 °F 35.9 °F 12.9 °F 31% 30.03 in 10.0 mi SSE 10.4 mph - N/A   Clear
6:15 AM 41.0 °F 35.2 °F 12.2 °F 31% 30.04 in 10.0 mi SSE 9.2 mph - N/A   Clear
6:35 AM 39.9 °F 33.4 °F 12.2 °F 32% 30.06 in 10.0 mi SSE 10.4 mph - N/A   Clear
6:55 AM 37.6 °F 34.0 °F 11.8 °F 35% 30.08 in 10.0 mi SE 4.6 mph - N/A   Clear
7:15 AM 34.9 °F 32.0 °F 11.1 °F 37% 30.08 in 10.0 mi SW 3.5 mph - N/A   Clear
7:35 AM 32.4 °F - 11.3 °F 42% 30.10 in 10.0 mi Calm Calm - N/A   Clear
7:55 AM 33.4 °F 30.4 °F 11.3 °F 40% 30.11 in 10.0 mi West 3.5 mph - N/A   Clear
8:15 AM 37.8 °F 34.2 °F 12.7 °F 36% 30.12 in 10.0 mi NW 4.6 mph - N/A   Clear
8:35 AM 40.3 °F - 13.1 °F 33% 30.14 in 10.0 mi Calm Calm - N/A   Clear
8:55 AM 41.9 °F - 13.6 °F 32% 30.15 in 10.0 mi Calm Calm - N/A   Clear
9:15 AM 42.8 °F 38.6 °F 13.6 °F 31% 30.16 in 10.0 mi SSW 6.9 mph - N/A   Clear
9:35 AM 42.8 °F 40.1 °F 14.2 °F 31% 30.18 in 10.0 mi West 4.6 mph - N/A   Clear
9:55 AM 42.6 °F 39.0 °F 14.7 °F 32% 30.20 in 10.0 mi West 5.8 mph - N/A   Clear
10:15 AM 44.1 °F 41.5 °F 15.1 °F 31% 30.20 in 10.0 mi West 4.6 mph - N/A   Clear
10:35 AM 45.3 °F 41.1 °F 15.6 °F 30% 30.21 in 10.0 mi WNW 8.1 mph - N/A   Clear
10:55 AM 46.4 °F 43.5 °F 15.8 °F 29% 30.21 in 10.0 mi NW 5.8 mph - N/A   Clear
11:15 AM 47.3 °F - 14.9 °F 27% 30.22 in 10.0 mi South 4.6 mph - N/A   Clear
11:35 AM 48.2 °F - 16.9 °F 29% 30.21 in 10.0 mi SE 10.4 mph - N/A   Clear
11:55 AM 48.0 °F - 17.6 °F 30% 30.22 in 10.0 mi SE 16.1 mph 21.9 mph N/A   Clear
12:15 PM 46.9 °F - 17.6 °F 31% 30.21 in 10.0 mi SE 18.4 mph 23.0 mph N/A   Clear
12:35 PM 46.8 °F - 18.0 °F 32% 30.22 in 10.0 mi ESE 15.0 mph 25.3 mph N/A   Clear
12:55 PM 47.5 °F - 18.1 °F 31% 30.23 in 10.0 mi SE 15.0 mph 23.0 mph N/A   Clear
1:15 PM 47.1 °F - 18.0 °F 31% 30.23 in 10.0 mi SE 19.6 mph 24.2 mph N/A   Clear
1:35 PM 46.8 °F - 17.6 °F 31% 30.23 in 10.0 mi ESE 19.6 mph 25.3 mph N/A   Clear
1:55 PM 46.4 °F 39.0 °F 17.4 °F 31% 30.23 in 10.0 mi ESE 19.6 mph 24.2 mph N/A   Clear
2:15 PM 46.4 °F 39.2 °F 17.2 °F 31% 30.23 in 10.0 mi SE 18.4 mph 26.5 mph N/A   Clear
2:35 PM 45.7 °F 38.6 °F 17.1 °F 32% 30.23 in 10.0 mi SE 17.3 mph 25.3 mph N/A   Clear
2:55 PM 44.6 °F 36.6 °F 16.3 °F 32% 30.24 in 10.0 mi SE 19.6 mph 26.5 mph N/A   Clear
3:15 PM 43.5 °F 35.2 °F 16.5 °F 34% 30.25 in 10.0 mi ESE 19.6 mph 26.5 mph N/A   Clear
3:35 PM 43.5 °F 34.7 °F 16.7 °F 34% 30.26 in 10.0 mi ESE 21.9 mph 27.6 mph N/A   Clear
3:55 PM 41.9 °F 33.1 °F 16.7 °F 36% 30.27 in 10.0 mi SE 19.6 mph 26.5 mph N/A   Clear
4:15 PM 41.0 °F 31.9 °F 16.5 °F 37% 30.27 in 10.0 mi ESE 19.6 mph 27.6 mph N/A   Clear
4:35 PM 39.4 °F 29.8 °F 16.7 °F 40% 30.29 in 10.0 mi SE 19.6 mph 28.8 mph N/A   Clear
4:55 PM 38.1 °F 28.8 °F 16.5 °F 42% 30.29 in 10.0 mi SE 17.3 mph 28.8 mph N/A   Clear
5:15 PM 37.2 °F 27.3 °F 16.7 °F 43% 30.30 in 10.0 mi ESE 18.4 mph 24.2 mph N/A   Clear
5:35 PM 35.6 °F 24.5 °F 16.2 °F 45% 30.32 in 10.0 mi SE 20.7 mph 27.6 mph N/A   Clear
5:55 PM 34.7 °F 23.7 °F 15.8 °F 46% 30.33 in 10.0 mi SE 19.6 mph 26.5 mph N/A   Clear
6:15 PM 34.0 °F 23.0 °F 15.8 °F 47% 30.36 in 10.0 mi SE 18.4 mph 27.6 mph N/A   Clear
6:35 PM 33.3 °F 22.5 °F 15.6 °F 48% 30.37 in 10.0 mi SE 17.3 mph 24.2 mph N/A   Clear
6:55 PM 32.5 °F 21.9 °F 15.4 °F 49% 30.38 in 10.0 mi SE 16.1 mph 25.3 mph N/A   Clear
7:15 PM 32.0 °F 20.8 °F 15.4 °F 51% 30.39 in 10.0 mi SE 17.3 mph 25.3 mph N/A   Clear
7:35 PM 32.0 °F 20.8 °F 15.4 °F 51% 30.40 in 10.0 mi SE 17.3 mph 24.2 mph N/A   Clear
7:55 PM 31.5 °F 20.9 °F 14.9 °F 50% 30.42 in 10.0 mi SE 15.0 mph 19.6 mph N/A   Clear
8:15 PM 31.5 °F 20.9 °F 14.9 °F 50% 30.42 in 10.0 mi SE 15.0 mph 20.7 mph N/A   Clear
8:35 PM 31.5 °F 21.4 °F 14.7 °F 50% 30.43 in 10.0 mi SE 13.8 mph 23.0 mph N/A   Clear
8:55 PM 31.1 °F 20.5 °F 14.4 °F 50% 30.44 in 10.0 mi SE 15.0 mph 20.7 mph N/A   Clear
9:15 PM 31.1 °F 20.5 °F 14.2 °F 50% 30.45 in 10.0 mi SE 15.0 mph 21.9 mph N/A   Clear
9:35 PM 30.6 °F 19.8 °F 14.0 °F 50% 30.47 in 10.0 mi SE 15.0 mph 18.4 mph N/A   Clear
9:55 PM 29.8 °F 19.8 °F 14.0 °F 52% 30.48 in 10.0 mi SE 12.7 mph 16.1 mph N/A   Clear
10:15 PM 29.1 °F 19.4 °F 13.6 °F 52% 30.50 in 10.0 mi SE 11.5 mph - N/A   Clear
10:35 PM 28.9 °F 21.1 °F 13.3 °F 52% 30.49 in 10.0 mi SE 8.1 mph - N/A   Clear
10:55 PM 28.8 °F 22.6 °F 13.1 °F 52% 30.50 in 10.0 mi SE 5.8 mph - N/A   Clear
11:15 PM 28.4 °F - 12.7 °F 52% 30.51 in 10.0 mi Calm Calm - N/A   Clear
11:35 PM 28.0 °F 24.2 °F 12.4 °F 52% 30.51 in 10.0 mi WNW 3.5 mph - N/A   Clear
11:55 PM 26.8 °F 21.4 °F 14.0 °F 59% 30.51 in 10.0 mi NW 4.6 mph - N/A   Clear